Location: Gwatt
(46.7204°N, 7.6223°E)
Time: 07:30:39
(UTC+00:00)

S-56A Canister/Altair - Pass Details

Date: 24 January 2021
Orbit: 632 x 2501 km, 38.9° (Epoch: 08 March)

Event Time Altitude Azimuth Distance (km) Brightness Sun altitude
Rises 01:01:10 0° 209° (SSW) 3,138 - -58.0°
Reaches altitude 10° 01:04:53 10° 182° (S) 2,062 - -57.6°
Maximum altitude 01:06:59 13° 154° (SSE) 1,820 - -57.4°
Drops below altitude 10° 01:09:03 10° 125° (SE) 2,003 - -57.2°
Sets 01:12:32 0° 97° (E) 2,968 - -56.8°
